| time (UTC) | temp F | wind direction | speed knots | gust knots | rain 1hr in | rain 24hr in | rain mn in | humidity % | barometer mb |
| 20260505072759 | 62 | 242 | 1.7 | 2.6 | 0.00 | 0.00 | 0.00 | 74 | 1007.9 |
| 20260505072255 | 62 | 286 | 2.6 | 6.1 | 0.00 | 0.00 | 0.00 | 72 | 1007.9 |
| 20260505071751 | 60 | 5 | 0.0 | 1.7 | 0.00 | 0.00 | 0.00 | 79 | 1007.8 |
| 20260505071247 | 61 | 293 | 0.0 | 0.9 | 0.00 | 0.00 | 0.00 | 78 | 1007.5 |
| 20260505070745 | 61 | 229 | 0.0 | 1.7 | 0.00 | 0.00 | 0.00 | 77 | 1007.3 |
| 20260505070241 | 61 | 119 | 0.9 | 1.7 | 0.00 | 0.00 | 0.00 | 74 | 1007.1 |
| 20260505065737 | 61 | 134 | 0.9 | 1.7 | 0.00 | 0.00 | 0.00 | 72 | 1007.2 |
| 20260505065234 | 61 | 130 | 0.0 | 0.0 | 0.00 | 0.00 | 0.00 | 74 | 1007.3 |
| 20260505064731 | 61 | 197 | 0.0 | 1.7 | 0.00 | 0.00 | 0.00 | 74 | 1007.3 |
| 20260505064229 | 62 | 235 | 0.0 | 0.9 | 0.00 | 0.00 | 0.00 | 72 | 1007.4 |
| 20260505063726 | 62 | 63 | 0.0 | 0.9 | 0.00 | 0.00 | 0.00 | 69 | 1007.3 |
| 20260505063222 | 62 | 221 | 0.0 | 1.7 | 0.00 | 0.00 | 0.00 | 66 | 1007.3 |
| 20260505062719 | 62 | 132 | 0.0 | 0.0 | 0.00 | 0.00 | 0.00 | 66 | 1007.1 |
| 20260505062217 | 63 | 173 | 0.0 | 0.9 | 0.00 | 0.00 | 0.00 | 67 | 1006.9 |
| 20260505061713 | 63 | 217 | 0.0 | 1.7 | 0.00 | 0.00 | 0.00 | 67 | 1007.3 |
| 20260505061211 | 63 | 304 | 0.0 | 0.9 | 0.00 | 0.00 | 0.00 | 65 | 1007.1 |
| 20260505060708 | 63 | 353 | 0.0 | 2.6 | 0.00 | 0.00 | 0.00 | 65 | 1007.0 |
| 20260505060205 | 64 | 233 | 0.0 | 0.9 | 0.00 | 0.00 | 0.00 | 65 | 1006.7 |
| 20260505055700 | 63 | 211 | 0.0 | 1.7 | 0.00 | 0.00 | 0.00 | 64 | 1006.6 |
| 20260505055157 | 64 | 246 | 1.7 | 2.6 | 0.00 | 0.00 | 0.00 | 64 | 1006.3 |
| 20260505054655 | 63 | 178 | 3.5 | 3.5 | 0.00 | 0.00 | 0.00 | 63 | 1006.4 |
| 20260505054153 | 64 | 163 | 0.9 | 1.7 | 0.00 | 0.00 | 0.00 | 65 | 1006.3 |
| 20260505053650 | 64 | 173 | 1.7 | 2.6 | 0.00 | 0.00 | 0.00 | 62 | 1006.4 |
| 20260505053146 | 64 | 177 | 1.7 | 2.6 | 0.00 | 0.00 | 0.00 | 63 | 1006.2 |
| 20260505052643 | 64 | 217 | 0.9 | 1.7 | 0.00 | 0.00 | 0.00 | 63 | 1006.0 |
| 20260505052141 | 64 | 171 | 1.7 | 3.5 | 0.00 | 0.00 | 0.00 | 63 | 1005.9 |
| 20260505051637 | 64 | 183 | 0.9 | 1.7 | 0.00 | 0.00 | 0.00 | 63 | 1006.0 |
| 20260505051136 | 64 | 224 | 0.0 | 4.3 | 0.00 | 0.00 | 0.00 | 62 | 1005.8 |
| 20260505050633 | 64 | 184 | 3.5 | 3.5 | 0.00 | 0.00 | 0.00 | 63 | 1005.9 |
| 20260505050131 | 64 | 176 | 2.6 | 2.6 | 0.00 | 0.00 | 0.00 | 63 | 1005.9 |
| 20260505041601 | 66 | 192 | 4.3 | 4.3 | 0.00 | 0.00 | 0.00 | 60 | 1006.3 |
| 20260505041058 | 66 | 158 | 1.7 | 5.2 | 0.00 | 0.00 | 0.00 | 61 | 1006.4 |
| 20260505040555 | 66 | 157 | 0.9 | 3.5 | 0.00 | 0.00 | 0.00 | 61 | 1006.4 |
| 20260505040053 | 66 | 179 | 1.7 | 2.6 | 0.00 | 0.00 | 0.00 | 60 | 1006.6 |
| 20260505035549 | 66 | 184 | 1.7 | 2.6 | 0.00 | 0.00 | 0.00 | 61 | 1006.5 |
| 20260505035045 | 65 | 141 | 0.0 | 3.5 | 0.00 | 0.00 | 0.00 | 61 | 1006.6 |
| 20260505034542 | 66 | 113 | 0.9 | 4.3 | 0.00 | 0.00 | 0.00 | 61 | 1006.8 |
| 20260505034039 | 66 | 155 | 0.9 | 2.6 | 0.00 | 0.00 | 0.00 | 61 | 1006.7 |
| 20260505033536 | 66 | 190 | 3.5 | 3.5 | 0.00 | 0.00 | 0.00 | 60 | 1006.4 |
| 20260505033034 | 66 | 192 | 2.6 | 3.5 | 0.00 | 0.00 | 0.00 | 60 | 1006.8 |
| 20260505032531 | 66 | 95 | 1.7 | 2.6 | 0.00 | 0.00 | 0.00 | 61 | 1006.6 |
| 20260505032028 | 66 | 186 | 2.6 | 4.3 | 0.00 | 0.00 | 0.00 | 60 | 1006.7 |
| 20260505031525 | 66 | 166 | 0.9 | 2.6 | 0.00 | 0.00 | 0.00 | 60 | 1006.7 |
| 20260505031021 | 66 | 195 | 1.7 | 2.6 | 0.00 | 0.00 | 0.00 | 60 | 1006.8 |
| 20260505030518 | 66 | 174 | 1.7 | 1.7 | 0.00 | 0.00 | 0.00 | 60 | 1006.7 |
| 20260505030015 | 66 | 147 | 0.0 | 0.9 | 0.00 | 0.00 | 0.00 | 63 | 1006.9 |
| 20260505025510 | 65 | 196 | 1.7 | 1.7 | 0.00 | 0.00 | 0.00 | 62 | 1006.8 |
| 20260505025010 | 66 | 131 | 0.0 | 1.7 | 0.00 | 0.00 | 0.00 | 63 | 1006.8 |
| 20260505024506 | 66 | 192 | 0.9 | 1.7 | 0.00 | 0.00 | 0.00 | 61 | 1006.6 |
| 20260505024003 | 66 | 168 | 2.6 | 3.5 | 0.00 | 0.00 | 0.00 | 60 | 1006.6 |
| 20260505023500 | 66 | 167 | 1.7 | 1.7 | 0.00 | 0.00 | 0.00 | 62 | 1006.6 |
| 20260505022957 | 65 | 184 | 2.6 | 2.6 | 0.00 | 0.00 | 0.00 | 63 | 1006.5 |
| 20260505022455 | 65 | 132 | 1.7 | 2.6 | 0.00 | 0.00 | 0.00 | 65 | 1006.6 |
| 20260505021952 | 65 | 181 | 1.7 | 1.7 | 0.00 | 0.00 | 0.00 | 64 | 1006.4 |
| 20260505021448 | 65 | 143 | 0.0 | 2.6 | 0.00 | 0.00 | 0.00 | 65 | 1006.3 |
| 20260505020944 | 65 | 167 | 0.0 | 1.7 | 0.00 | 0.00 | 0.00 | 64 | 1006.3 |
| 20260505020439 | 66 | 217 | 0.0 | 1.7 | 0.00 | 0.00 | 0.00 | 65 | 1006.2 |
| 20260505015937 | 65 | 183 | 1.7 | 2.6 | 0.00 | 0.00 | 0.00 | 63 | 1005.8 |
| 20260505015434 | 66 | 113 | 0.0 | 1.7 | 0.00 | 0.00 | 0.00 | 64 | 1005.7 |
| 20260505014931 | 66 | 170 | 1.7 | 2.6 | 0.00 | 0.00 | 0.00 | 61 | 1005.7 |
| 20260505014428 | 67 | 208 | 1.7 | 1.7 | 0.00 | 0.00 | 0.00 | 59 | 1005.6 |
| 20260505013925 | 68 | 200 | 1.7 | 3.5 | 0.00 | 0.00 | 0.00 | 58 | 1005.5 |
| 20260505013422 | 67 | 181 | 1.7 | 2.6 | 0.00 | 0.00 | 0.00 | 59 | 1005.6 |
| 20260505012920 | 68 | 177 | 0.0 | 2.6 | 0.00 | 0.00 | 0.00 | 59 | 1005.6 |
| 20260505012418 | 67 | 126 | 0.0 | 1.7 | 0.00 | 0.00 | 0.00 | 62 | 1005.6 |
| 20260505011914 | 67 | 171 | 0.9 | 1.7 | 0.00 | 0.00 | 0.00 | 59 | 1005.4 |
| 20260505011410 | 67 | 183 | 1.7 | 3.5 | 0.00 | 0.00 | 0.00 | 58 | 1005.4 |
| 20260505010907 | 67 | 147 | 0.0 | 2.6 | 0.00 | 0.00 | 0.00 | 60 | 1005.5 |
| 20260505010403 | 68 | 140 | 0.0 | 1.7 | 0.00 | 0.00 | 0.00 | 59 | 1005.5 |
| 20260505005859 | 68 | 194 | 1.7 | 1.7 | 0.00 | 0.00 | 0.00 | 58 | 1005.5 |
| 20260505005355 | 69 | 149 | 1.7 | 2.6 | 0.00 | 0.00 | 0.00 | 57 | 1005.4 |
| 20260505004853 | 69 | 142 | 0.0 | 3.5 | 0.00 | 0.00 | 0.00 | 58 | 1005.5 |
| 20260505004349 | 68 | 132 | 0.0 | 2.6 | 0.00 | 0.00 | 0.00 | 58 | 1005.5 |
| 20260505003847 | 69 | 119 | 0.0 | 2.6 | 0.00 | 0.00 | 0.00 | 57 | 1005.5 |
| 20260505003344 | 69 | 182 | 1.7 | 1.7 | 0.00 | 0.00 | 0.00 | 57 | 1005.3 |
| 20260505002839 | 70 | 180 | 0.0 | 0.0 | 0.00 | 0.00 | 0.00 | 56 | 1005.4 |
| 20260505002337 | 70 | 215 | 0.9 | 3.5 | 0.00 | 0.00 | 0.00 | 54 | 1005.5 |
| 20260505001835 | 70 | 144 | 1.7 | 2.6 | 0.00 | 0.00 | 0.00 | 53 | 1005.4 |
| 20260505001332 | 71 | 188 | 0.9 | 3.5 | 0.00 | 0.00 | 0.00 | 53 | 1005.4 |
| 20260505000829 | 71 | 228 | 0.0 | 2.6 | 0.00 | 0.00 | 0.00 | 54 | 1005.4 |
| 20260505000327 | 71 | 200 | 0.0 | 2.6 | 0.00 | 0.00 | 0.00 | 53 | 1005.5 |
| 20260504235823 | 72 | 300 | 1.7 | 3.5 | 0.00 | 0.00 | 0.00 | 52 | 1005.6 |
| 20260504235320 | 72 | 208 | 1.7 | 3.5 | 0.00 | 0.00 | 0.00 | 51 | 1005.7 |
| 20260504234817 | 72 | 176 | 0.9 | 1.7 | 0.00 | 0.00 | 0.00 | 50 | 1005.5 |
| 20260504234315 | 72 | 224 | 1.7 | 5.2 | 0.00 | 0.00 | 0.00 | 50 | 1005.6 |
| 20260504233811 | 72 | 142 | 0.9 | 2.6 | 0.00 | 0.00 | 0.00 | 52 | 1005.7 |
| 20260504233306 | 72 | 144 | 0.9 | 1.7 | 0.00 | 0.00 | 0.00 | 50 | 1005.7 |
| 20260504232803 | 71 | 163 | 1.7 | 4.3 | 0.00 | 0.00 | 0.00 | 50 | 1005.9 |
| 20260504232301 | 72 | 294 | 1.7 | 4.3 | 0.00 | 0.00 | 0.00 | 52 | 1005.8 |
| 20260504231758 | 72 | 218 | 3.5 | 5.2 | 0.00 | 0.00 | 0.00 | 50 | 1005.9 |
| 20260504231254 | 71 | 202 | 0.9 | 2.6 | 0.00 | 0.00 | 0.00 | 59 | 1006.0 |
| 20260504230750 | 71 | 177 | 2.6 | 2.6 | 0.00 | 0.00 | 0.00 | 55 | 1006.2 |
| 20260504230248 | 72 | 180 | 1.7 | 3.5 | 0.00 | 0.00 | 0.00 | 55 | 1006.0 |
| 20260504225747 | 72 | 180 | 3.5 | 4.3 | 0.00 | 0.00 | 0.00 | 53 | 1006.2 |
| 20260504225243 | 72 | 201 | 1.7 | 2.6 | 0.00 | 0.00 | 0.00 | 56 | 1006.2 |
| 20260504224740 | 72 | 202 | 0.9 | 3.5 | 0.00 | 0.00 | 0.00 | 54 | 1006.2 |
| 20260504224237 | 72 | 173 | 1.7 | 2.6 | 0.00 | 0.00 | 0.00 | 52 | 1006.3 |
| 20260504223733 | 72 | 188 | 1.7 | 3.5 | 0.00 | 0.00 | 0.00 | 52 | 1006.3 |
| 20260504223229 | 73 | 177 | 1.7 | 4.3 | 0.00 | 0.00 | 0.00 | 51 | 1006.4 |
| 20260504222726 | 73 | 183 | 3.5 | 4.3 | 0.00 | 0.00 | 0.00 | 51 | 1006.4 |
| 20260504222223 | 72 | 177 | 1.7 | 3.5 | 0.00 | 0.00 | 0.00 | 52 | 1006.7 |
| 20260504221721 | 73 | 300 | 0.0 | 3.5 | 0.00 | 0.00 | 0.00 | 55 | 1006.6 |
| 20260504221218 | 72 | 269 | 0.0 | 1.7 | 0.00 | 0.00 | 0.00 | 54 | 1006.8 |
| 20260504220714 | 71 | 129 | 0.0 | 1.7 | 0.00 | 0.00 | 0.00 | 56 | 1007.0 |
| 20260504220212 | 71 | 144 | 0.9 | 3.5 | 0.00 | 0.00 | 0.00 | 54 | 1007.0 |
| 20260504215708 | 72 | 243 | 0.0 | 1.7 | 0.00 | 0.00 | 0.00 | 55 | 1006.9 |
| 20260504215205 | 72 | 185 | 1.7 | 4.3 | 0.00 | 0.00 | 0.00 | 54 | 1006.7 |
| 20260504214701 | 72 | 254 | 0.9 | 1.7 | 0.00 | 0.00 | 0.00 | 55 | 1006.5 |
| 20260504214157 | 72 | 208 | 0.9 | 1.7 | 0.00 | 0.00 | 0.00 | 53 | 1006.6 |
| 20260504213654 | 73 | 191 | 2.6 | 3.5 | 0.00 | 0.00 | 0.00 | 56 | 1006.7 |
| 20260504213151 | 72 | 203 | 1.7 | 4.3 | 0.00 | 0.00 | 0.00 | 55 | 1006.7 |
| 20260504212647 | 71 | 156 | 1.7 | 2.6 | 0.00 | 0.00 | 0.00 | 56 | 1006.9 |
| 20260504212144 | 70 | 88 | 1.7 | 2.6 | 0.00 | 0.00 | 0.00 | 57 | 1007.2 |
| 20260504211642 | 70 | 63 | 0.0 | 2.6 | 0.00 | 0.00 | 0.00 | 58 | 1007.4 |
| 20260504211138 | 70 | 226 | 4.3 | 4.3 | 0.00 | 0.00 | 0.00 | 57 | 1007.8 |
| 20260504210636 | 70 | 322 | 0.0 | 1.7 | 0.00 | 0.00 | 0.00 | 58 | 1007.6 |
| 20260504210132 | 70 | 244 | 0.9 | 4.3 | 0.00 | 0.00 | 0.00 | 56 | 1007.8 |
| 20260504205629 | 70 | 263 | 1.7 | 3.5 | 0.00 | 0.00 | 0.00 | 56 | 1007.7 |
| 20260504205127 | 71 | 168 | 2.6 | 3.5 | 0.00 | 0.00 | 0.00 | 56 | 1007.8 |
| 20260504204625 | 71 | 106 | 3.5 | 3.5 | 0.00 | 0.00 | 0.00 | 59 | 1007.7 |
| 20260504204124 | 70 | 222 | 1.7 | 6.1 | 0.00 | 0.00 | 0.00 | 59 | 1007.8 |
| 20260504203622 | 70 | 234 | 1.7 | 2.6 | 0.00 | 0.00 | 0.00 | 62 | 1007.9 |
| 20260504203119 | 69 | 288 | 3.5 | 3.5 | 0.00 | 0.00 | 0.00 | 63 | 1007.7 |
| 20260504202614 | 68 | 179 | 1.7 | 3.5 | 0.00 | 0.00 | 0.00 | 62 | 1007.7 |
| 20260504202111 | 68 | 207 | 2.6 | 4.3 | 0.00 | 0.00 | 0.00 | 64 | 1007.7 |
| 20260504201608 | 67 | 180 | 0.9 | 1.7 | 0.00 | 0.00 | 0.00 | 64 | 1008.0 |
| 20260504201106 | 67 | 222 | 0.9 | 1.7 | 0.00 | 0.00 | 0.00 | 65 | 1008.2 |
| 20260504200602 | 67 | 176 | 2.6 | 3.5 | 0.00 | 0.00 | 0.00 | 64 | 1008.4 |
| 20260504200059 | 67 | 198 | 1.7 | 2.6 | 0.00 | 0.00 | 0.00 | 65 | 1008.3 |
| 20260504195555 | 68 | 318 | 1.7 | 3.5 | 0.00 | 0.00 | 0.00 | 63 | 1008.5 |
| 20260504195051 | 67 | 245 | 0.9 | 2.6 | 0.00 | 0.00 | 0.00 | 63 | 1008.7 |
| 20260504194548 | 67 | 168 | 0.0 | 2.6 | 0.00 | 0.00 | 0.00 | 62 | 1008.3 |
| 20260504194043 | 68 | 154 | 0.0 | 2.6 | 0.00 | 0.00 | 0.00 | 61 | 1008.1 |
| 20260504193540 | 68 | 33 | 0.9 | 2.6 | 0.00 | 0.00 | 0.00 | 60 | 1008.2 |
| 20260504193039 | 68 | 305 | 2.6 | 3.5 | 0.00 | 0.00 | 0.00 | 60 | 1008.4 |
| 20260504192537 | 67 | 220 | 0.9 | 3.5 | 0.00 | 0.00 | 0.00 | 61 | 1008.2 |
| 20260504192035 | 66 | 52 | 0.0 | 5.2 | 0.00 | 0.00 | 0.00 | 64 | 1008.2 |
| 20260504191532 | 67 | 254 | 1.7 | 2.6 | 0.00 | 0.00 | 0.00 | 64 | 1008.3 |
| 20260504191028 | 67 | 191 | 1.7 | 7.0 | 0.00 | 0.00 | 0.00 | 66 | 1008.8 |
| 20260504190525 | 67 | 269 | 0.0 | 1.7 | 0.00 | 0.00 | 0.00 | 65 | 1008.8 |
| 20260504190021 | 67 | 292 | 1.7 | 1.7 | 0.00 | 0.00 | 0.00 | 64 | 1008.9 |
| 20260504185518 | 66 | 197 | 1.7 | 3.5 | 0.00 | 0.00 | 0.00 | 66 | 1008.8 |
| 20260504185014 | 65 | 176 | 4.3 | 4.3 | 0.00 | 0.00 | 0.00 | 67 | 1008.9 |
| 20260504184510 | 65 | 179 | 1.7 | 1.7 | 0.00 | 0.00 | 0.00 | 69 | 1008.9 |
| 20260504184006 | 65 | 188 | 2.6 | 2.6 | 0.00 | 0.00 | 0.00 | 69 | 1009.1 |
| 20260504183503 | 65 | 184 | 2.6 | 4.3 | 0.00 | 0.00 | 0.00 | 67 | 1009.2 |
| 20260504183001 | 66 | 282 | 0.9 | 3.5 | 0.00 | 0.00 | 0.00 | 65 | 1009.4 |
| 20260504182457 | 67 | 212 | 4.3 | 5.2 | 0.00 | 0.00 | 0.00 | 61 | 1009.1 |
| 20260504181955 | 68 | 308 | 0.9 | 3.5 | 0.00 | 0.00 | 0.00 | 61 | 1009.0 |
| 20260504181452 | 68 | 251 | 2.6 | 6.1 | 0.00 | 0.00 | 0.00 | 60 | 1009.3 |
| 20260504180950 | 69 | 287 | 2.6 | 3.5 | 0.00 | 0.00 | 0.00 | 59 | 1009.0 |
| 20260504180449 | 69 | 305 | 2.6 | 3.5 | 0.00 | 0.00 | 0.00 | 59 | 1008.9 |
| 20260504175947 | 69 | 177 | 2.6 | 6.1 | 0.00 | 0.00 | 0.00 | 57 | 1008.5 |
| 20260504175444 | 69 | 168 | 0.9 | 7.0 | 0.00 | 0.00 | 0.00 | 58 | 1008.8 |
| 20260504174941 | 70 | 228 | 1.7 | 5.2 | 0.00 | 0.00 | 0.00 | 62 | 1008.8 |
| 20260504174438 | 71 | 167 | 1.7 | 5.2 | 0.00 | 0.00 | 0.00 | 55 | 1008.5 |
| 20260504173936 | 71 | 247 | 1.7 | 5.2 | 0.00 | 0.00 | 0.00 | 57 | 1008.4 |
| 20260504173432 | 70 | 137 | 0.9 | 4.3 | 0.00 | 0.00 | 0.00 | 58 | 1008.3 |
| 20260504172930 | 70 | 345 | 0.0 | 3.5 | 0.00 | 0.00 | 0.00 | 59 | 1008.3 |
| 20260504172425 | 70 | 180 | 2.6 | 2.6 | 0.00 | 0.00 | 0.00 | 58 | 1008.1 |
| 20260504171922 | 71 | 213 | 0.0 | 2.6 | 0.00 | 0.00 | 0.00 | 57 | 1008.2 |
| 20260504171420 | 70 | 172 | 4.3 | 6.1 | 0.00 | 0.00 | 0.00 | 56 | 1008.2 |
| 20260504170916 | 70 | 287 | 2.6 | 4.3 | 0.00 | 0.00 | 0.00 | 62 | 1008.4 |
| 20260504170413 | 70 | 79 | 0.9 | 6.1 | 0.00 | 0.00 | 0.00 | 60 | 1008.6 |
| 20260504160331 | 66 | 153 | 1.7 | 1.7 | 0.00 | 0.00 | 0.00 | 63 | 1009.2 |
| 20260504150756 | 64 | 186 | 0.0 | 2.6 | 0.00 | 0.00 | 0.00 | 63 | 1009.3 |
| 20260504150253 | 66 | 162 | 0.9 | 5.2 | 0.00 | 0.00 | 0.00 | 60 | 1009.2 |
| 20260504141223 | 64 | 239 | 1.7 | 3.5 | 0.00 | 0.00 | 0.00 | 62 | 1009.3 |
| 20260504140719 | 63 | 162 | 0.9 | 4.3 | 0.00 | 0.00 | 0.00 | 61 | 1009.3 |
| 20260504140215 | 63 | 172 | 1.7 | 3.5 | 0.00 | 0.00 | 0.00 | 61 | 1009.6 |
| 20260504130643 | 56 | 128 | 1.7 | 2.6 | 0.00 | 0.00 | 0.00 | 72 | 1009.6 |
| 20260504130140 | 56 | 101 | 0.0 | 2.6 | 0.00 | 0.00 | 0.00 | 71 | 1009.6 |
| 20260504120104 | 52 | 107 | 0.0 | 1.7 | 0.00 | 0.00 | 0.00 | 75 | 1009.5 |
| 20260504110531 | 50 | 162 | 0.9 | 1.7 | 0.00 | 0.00 | 0.00 | 77 | 1009.6 |
| 20260504100453 | 47 | 119 | 0.0 | 1.7 | 0.00 | 0.00 | 0.00 | 82 | 1009.9 |
| 20260504081846 | 50 | 147 | 0.0 | 1.7 | 0.00 | 0.00 | 0.00 | 74 | 1010.6 |
| 20260504081343 | 50 | 165 | 0.9 | 1.7 | 0.00 | 0.00 | 0.00 | 68 | 1010.6 |
| 20260504080839 | 51 | 140 | 0.9 | 1.7 | 0.00 | 0.00 | 0.00 | 67 | 1010.6 |
| 20260504080336 | 50 | 119 | 1.7 | 1.7 | 0.00 | 0.00 | 0.00 | 67 | 1010.6 |